Hutchinson, MN

1:53 AM CDT on June 26, 2017 (GMT -0500)
Hutchinson Municipal-Butler

Weather History for KHCD - January, 2013

Change the Weather History Date:

Sunday, January 6, 2013

  Actual Average Record
Temperature  
Mean Temperature 14 °F -  
Max Temperature 20 °F 19 °F 48 °F (1961)
Min Temperature 9 °F 1 °F -26 °F (1988)
Degree Days  
Heating Degree Days 51    
Moisture  
Dew Point 12 °F    
Average Humidity 93    
Maximum Humidity 100    
Minimum Humidity 83    
Precipitation  
Precipitation 0.00 in - - ()
Sea Level Pressure  
Sea Level Pressure 30.12 in    
Wind  
Wind Speed 8 mph (SW)    
Max Wind Speed 14 mph    
Max Gust Speed 21 mph    
Visibility 9 miles    
Events Snow    
Averages and records for this station are not official NWS values.
T = Trace of Precipitation, MM = Missing Value Source: NWS Daily Summary

Daily Weather History Graph

Daily Weather History Graph

Search for Another Location

Airport or City:

Trip Planner

Search our weather history database for the weather conditions in past years. The results will help you decide how hot, cold, wet, or windy it might be!

Date:

Astronomy

Jan. 06, 2013 Rise Set
Actual Time 7:54 AM CST 4:52 PM CST
Civil Twilight 7:21 AM CST 5:25 PM CST
Nautical Twilight 6:44 AM CST 6:02 PM CST
Astronomical Twilight 6:09 AM CST 6:37 PM CST
Moon 2:04 AM CST (1/6) 12:25 PM CST (1/6)
Length of Visible Light 10h 04m
Length of Day
8h 57m
Waning Crescent, 33% of the Moon is Illuminated
Jan 6
Waning Crescent
Jan 11
New
Jan 18
First Quarter
Jan 26
Full
Feb 3
Last Quarter

Hourly Weather History & Observations

Time (CST) Temp. Windchill Dew Point Humidity Pressure Visibility Wind Dir Wind Speed Gust Speed Precip Events Conditions
12:08 AM 11.7 °F -0.9 °F 10.2 °F 94% 30.05 in 10.0 mi WNW 9.2 mph - N/A   Clear
12:29 AM 11.7 °F -2.5 °F 10.2 °F 94% 30.05 in 10.0 mi WNW 11.5 mph - N/A   Mostly Cloudy
12:48 AM 11.7 °F 1.1 °F 10.0 °F 93% 30.06 in 10.0 mi WNW 6.9 mph - N/A   Scattered Clouds
1:08 AM 10.4 °F -0.4 °F 8.6 °F 92% 30.06 in 10.0 mi WNW 6.9 mph - N/A   Clear
1:29 AM 9.3 °F -3.8 °F 7.5 °F 92% 30.06 in 10.0 mi WNW 9.2 mph - N/A   Clear
1:49 AM 9.1 °F -4.0 °F 6.8 °F 90% 30.07 in 10.0 mi WNW 9.2 mph - N/A   Clear
2:08 AM 9.1 °F -3.0 °F 6.6 °F 89% 30.08 in 10.0 mi West 8.1 mph - N/A   Clear
2:28 AM 9.1 °F -4.9 °F 6.6 °F 89% 30.09 in 10.0 mi West 10.4 mph - N/A   Clear
2:48 AM 9.1 °F -7.0 °F 6.1 °F 87% 30.10 in 10.0 mi West 13.8 mph - N/A   Clear
3:08 AM 9.1 °F -5.6 °F 5.7 °F 86% 30.11 in 10.0 mi West 11.5 mph - N/A   Clear
3:28 AM 9.1 °F -6.4 °F 5.5 °F 85% 30.10 in 10.0 mi WNW 12.7 mph - N/A   Mostly Cloudy
4:09 AM 9.3 °F -5.4 °F 5.2 °F 83% 30.10 in 10.0 mi WNW 11.5 mph - N/A   Overcast
4:28 AM 10.0 °F -3.7 °F 6.3 °F 85% 30.11 in 10.0 mi WNW 10.4 mph - N/A   Overcast
4:48 AM 11.7 °F -1.7 °F 7.7 °F 84% 30.11 in 10.0 mi WNW 10.4 mph - N/A   Overcast
5:09 AM 11.7 °F 0.0 °F 8.1 °F 85% 30.10 in 10.0 mi WNW 8.1 mph - N/A   Overcast
5:28 AM 14.0 °F 2.0 °F 10.8 °F 87% 30.11 in 10.0 mi WNW 9.2 mph - N/A   Overcast
5:49 AM 14.0 °F 1.2 °F 10.9 °F 88% 30.12 in 10.0 mi WNW 10.4 mph - N/A   Overcast
6:28 AM 11.7 °F 0.0 °F 9.1 °F 90% 30.14 in 10.0 mi WNW 8.1 mph - N/A   Clear
6:49 AM 10.4 °F -2.4 °F 8.2 °F 91% 30.15 in 10.0 mi West 9.2 mph - N/A   Clear
7:09 AM 9.1 °F -3.0 °F 7.2 °F 92% 30.16 in 10.0 mi West 8.1 mph - N/A   Clear
7:28 AM 9.1 °F -1.9 °F 7.5 °F 93% 30.17 in 10.0 mi WNW 6.9 mph - N/A   Scattered Clouds
7:48 AM 9.7 °F 1.4 °F 7.9 °F 92% 30.17 in 10.0 mi WNW 4.6 mph - N/A   Overcast
8:09 AM 11.7 °F 5.5 °F 10.4 °F 95% 30.18 in 10.0 mi WNW 3.5 mph - N/A Snow Light Snow
8:28 AM 14.0 °F 2.9 °F 13.1 °F 96% 30.18 in 10.0 mi WNW 8.1 mph - N/A Snow Light Snow
8:48 AM 14.0 °F 1.2 °F 13.1 °F 96% 30.18 in 10.0 mi WNW 10.4 mph - N/A   Overcast
9:08 AM 14.4 °F 2.4 °F 13.5 °F 96% 30.19 in 7.0 mi NW 9.2 mph - N/A Snow Light Snow
9:29 AM 14.9 °F 5.0 °F 14.0 °F 96% 30.20 in 10.0 mi WNW 6.9 mph - N/A Snow Light Snow
9:49 AM 15.4 °F 6.8 °F 14.5 °F 96% 30.20 in 5.0 mi WNW 5.8 mph - N/A Snow Light Snow
10:04 AM 15.4 °F 6.8 °F 14.5 °F 96% 30.20 in 10.0 mi West 5.8 mph - N/A   Mostly Cloudy
10:29 AM 15.4 °F 4.6 °F 14.0 °F 94% 30.21 in 10.0 mi West 8.1 mph - N/A   Mostly Cloudy
10:49 AM 14.7 °F 4.8 °F 13.5 °F 95% 30.21 in 10.0 mi WSW 6.9 mph - N/A   Mostly Cloudy
11:08 AM 16.7 °F 9.6 °F 15.3 °F 94% 30.20 in 10.0 mi WSW 4.6 mph - N/A   Mostly Cloudy
11:29 AM 16.7 °F 7.2 °F 14.9 °F 93% 30.21 in 10.0 mi West 6.9 mph - N/A   Mostly Cloudy
11:49 AM 16.7 °F 5.3 °F 14.9 °F 93% 30.21 in 10.0 mi West 9.2 mph - N/A   Overcast
12:09 PM 16.7 °F 5.3 °F 14.9 °F 93% 30.21 in 7.0 mi West 9.2 mph - N/A   Mostly Cloudy
12:28 PM 16.7 °F 7.2 °F 14.5 °F 91% 30.19 in 7.0 mi WSW 6.9 mph - N/A   Scattered Clouds
12:48 PM 16.7 °F 9.6 °F 14.0 °F 89% 30.18 in 7.0 mi WSW 4.6 mph - N/A   Clear
1:08 PM 16.7 °F 9.6 °F 13.8 °F 88% 30.17 in 7.0 mi WSW 4.6 mph - N/A   Clear
1:29 PM 16.7 °F 9.6 °F 14.0 °F 89% 30.16 in 10.0 mi SW 4.6 mph - N/A   Clear
1:49 PM 16.7 °F 6.2 °F 14.4 °F 91% 30.18 in 5.0 mi West 8.1 mph - N/A   Scattered Clouds
2:08 PM 16.3 °F 10.8 °F 14.5 °F 93% 30.17 in 7.0 mi WSW 3.5 mph - N/A   Scattered Clouds
2:28 PM 16.0 °F 10.4 °F 14.2 °F 93% 30.17 in 7.0 mi SSW 3.5 mph - N/A   Scattered Clouds
2:49 PM 15.3 °F 9.6 °F 13.8 °F 94% 30.17 in 5.0 mi South 3.5 mph - N/A   Mostly Cloudy
3:08 PM 14.9 °F 9.2 °F 14.0 °F 96% 30.16 in 2.5 mi SSE 3.5 mph - N/A   Overcast
3:29 PM 15.4 °F 9.8 °F 14.5 °F 96% 30.16 in 1.5 mi SSE 3.5 mph - N/A   Overcast
3:49 PM 15.4 °F 8.1 °F 14.5 °F 96% 30.16 in 2.0 mi SE 4.6 mph - N/A   Overcast
4:08 PM 15.4 °F 9.8 °F 14.5 °F 96% 30.16 in 2.5 mi SE 3.5 mph - N/A   Overcast
4:15 PM 15.3 °F 9.6 °F 14.4 °F 96% 30.16 in 3.0 mi SE 3.5 mph - N/A   Overcast
4:50 PM 14.0 °F 6.5 °F 12.2 °F 93% 30.15 in 4.0 mi SE 4.6 mph - N/A   Clear
5:10 PM 12.2 °F 4.3 °F 10.4 °F 92% 30.15 in 5.0 mi SE 4.6 mph - N/A   Clear
5:30 PM 12.2 °F 2.9 °F 10.4 °F 92% 30.13 in 7.0 mi SE 5.8 mph - N/A   Clear
5:50 PM 12.2 °F 6.1 °F 10.4 °F 92% 30.14 in 7.0 mi SE 3.5 mph - N/A   Clear
6:10 PM 12.2 °F 4.3 °F 10.4 °F 92% 30.14 in 7.0 mi SE 4.6 mph - N/A   Clear
6:30 PM 10.4 °F 2.2 °F 10.4 °F 100% 30.13 in 7.0 mi SE 4.6 mph - N/A   Clear
6:50 PM 10.4 °F 0.8 °F 8.6 °F 92% 30.12 in 10.0 mi SE 5.8 mph - N/A   Clear
7:10 PM 12.2 °F 4.3 °F 10.4 °F 92% 30.11 in 10.0 mi SE 4.6 mph - N/A   Clear
7:30 PM 14.0 °F 6.5 °F 12.2 °F 93% 30.10 in 10.0 mi SE 4.6 mph - N/A   Clear
7:50 PM 14.0 °F 5.1 °F 12.2 °F 93% 30.08 in 10.0 mi SSE 5.8 mph - N/A   Clear
8:10 PM 14.0 °F 5.1 °F 12.2 °F 93% 30.06 in 10.0 mi SSE 5.8 mph - N/A   Clear
8:30 PM 14.0 °F 3.9 °F 14.0 °F 100% 30.04 in 10.0 mi SSE 6.9 mph - N/A   Clear
8:50 PM 15.8 °F 5.1 °F 15.8 °F 100% 30.03 in 10.0 mi SSE 8.1 mph - N/A   Clear
9:05 PM 16.7 °F 9.6 °F 15.6 °F 96% 30.03 in 10.0 mi SSE 4.6 mph - N/A   Clear
9:10 PM 15.8 °F 7.2 °F 15.8 °F 100% 30.02 in 10.0 mi SSE 5.8 mph - N/A   Clear
9:28 PM 16.7 °F 5.3 °F 15.8 °F 96% 30.01 in 10.0 mi SE 9.2 mph - N/A   Clear
9:47 PM 16.7 °F 7.2 °F 15.6 °F 96% 30.00 in 10.0 mi SSE 6.9 mph - N/A   Clear
10:10 PM 15.8 °F 5.1 °F 15.8 °F 100% 29.99 in 10.0 mi SSE 8.1 mph - N/A   Clear
10:30 PM 15.8 °F 4.2 °F 15.8 °F 100% 29.98 in 10.0 mi SSE 9.2 mph - N/A   Clear
10:45 PM 17.6 °F 5.7 °F 17.6 °F 100% 29.96 in 10.0 mi South 10.4 mph - N/A   Clear
11:30 PM 19.8 °F 7.1 °F 17.6 °F 91% 29.92 in 10.0 mi SSE 12.7 mph 20.7 mph N/A   Clear
11:48 PM 20.3 °F 7.7 °F 18.0 °F 91% 29.90 in 10.0 mi SSE 12.7 mph 19.6 mph N/A   Clear